Location: Unspecified
(54.1780°N, 0.0000°E)
Time: 04:47:53
(UTC+00:00)

Vanguard 2 - Pass Details

Date: 19 June 2019
Orbit: 553 x 2938 km, 32.9° (Epoch: 23 July)

Event Time Altitude Azimuth Distance (km) Brightness Sun altitude
Rises 13:20:14 0° 251° (WSW) 4,675 11.9 55.9°
Reaches altitude 10° 13:24:09 10° 235° (SW) 4,082 11.9 55.6°
Maximum altitude 13:31:32 20° 195° (SSW) 3,965 12.1 54.9°
Drops below altitude 10° 13:40:56 10° 156° (SSE) 5,348 12.2 54.0°
Sets 13:47:18 0° 143° (SE) 6,631 12.4 53.4°
